[[{"header":{"parameterUnit":"m.s-1","parameterCategory":1,"la1":30.2991,"la2":30.254,"lo1":-89.0895,"lo2":-89.0444,"dy":0.0017,"dx":0.0017,"nx":28,"ny":28,"refTime":"2024-04-03T21:00:00:Z","depth":0,"parameterNumber":2,"parameterNumberName":"U-component_of_WINDS"},"data":[0,0,0,0,0,0,0,0,0,0,0,0,0,0,0,0,0,0,0,0,0,0,0,0,0,0,0,0,0,0,0,0,0,0,0,0,0,0,0,0,0,0,0,0,0,0,0,0,0,0,0,0,0,0,0,0,0,0,1.7376,1.7377,0,1.7443,1.7443,1.7444,1.7518,1.7519,1.7521,1.7522,1.7589,1.759,1.759,0,0,0,0,0,0,0,0,0,0,0,0,0,1.7315,1.7316,1.7376,1.7377,1.7378,1.7442,1.7443,1.7444,1.7518,1.7519,1.7521,1.7522,1.7589,1.759,1.759,0,0,0,0,0,0,0,0,0,0,0,0,0,1.7357,1.7316,1.7376,1.7423,1.7428,1.7442,1.7443,1.7445,1.7518,1.752,1.7521,1.7523,1.7588,1.7589,1.7591,1.7565,0,0,1.7594,1.7595,0,0,0,0,0,0,0,0,1.7355,1.736,1.7415,1.742,1.7425,1.7474,1.7447,1.7485,1.7517,1.7484,1.7522,1.7523,1.7549,1.7554,1.7563,1.7568,1.7571,1.7594,1.7595,1.7595,1.7596,0,0,0,0,0,0,0,1.7352,1.7357,1.7403,1.7416,1.7422,1.7441,1.7448,1.7454,1.7506,1.7487,1.7492,1.7499,1.7552,1.7561,1.7565,1.7572,1.7594,1.7595,1.7596,1.7596,1.7562,1.7561,0,0,0,0,0,0,1.7342,1.7354,1.7401,1.7405,1.7393,1.744,1.7449,1.7457,1.7507,1.7516,1.7498,1.7502,1.7558,1.7563,1.7567,1.7542,1.7595,1.7597,1.7597,1.7564,1.7562,1.756,0,0,0,0,0,0,1.734,1.7345,1.7398,1.7381,1.7389,1.744,1.7447,1.7457,1.7466,1.7515,1.7525,1.7497,1.756,1.7566,1.7566,1.7546,1.7597,1.7598,1.7566,1.7563,1.7561,1.7491,0,0,0,0,0,0,1.7338,1.7344,1.7335,1.738,1.739,1.7394,1.7446,1.7457,1.7468,1.7475,1.7517,1.7525,1.7562,1.7563,1.7567,1.7548,1.7599,1.7568,1.7565,1.7562,1.7495,1.7486,1.7479,0,0,0,0,0,1.7336,1.7312,1.7334,1.7339,1.7379,1.7393,1.7399,1.7441,1.7466,1.7457,1.7489,1.7524,1.7547,1.7563,1.7567,1.7549,1.7569,1.7565,1.7562,1.7499,1.7488,1.7479,0,0,0,0,0,0,1.7262,1.7318,1.7344,1.7334,1.7358,1.7406,1.7396,1.7428,1.7445,1.7451,1.7503,1.7512,1.7506,1.7527,1.7544,1.7528,1.7563,1.756,1.7514,1.7504,1.7496,1.7491,1.76,0,0,0,0,0,1.7245,1.7251,1.73,1.7287,1.7298,1.7344,1.7352,1.7383,1.741,1.7421,1.7453,1.7478,1.7491,1.7499,1.7513,1.7498,1.751,1.7488,1.748,1.7473,1.747,1.7466,1.7457,1.7548,1.7548,1.7548,0,0,1.7209,1.724,1.7241,1.7273,1.7296,1.7302,1.7353,1.7357,1.7363,1.7422,1.7424,1.7448,1.748,1.7473,1.7471,1.749,1.7447,1.7468,1.7462,1.7463,1.7461,1.7453,1.7445,1.7546,1.7546,1.7547,0,0,1.7147,1.7171,1.7163,1.7185,1.7219,1.725,1.7248,1.7292,1.731,1.7313,1.7358,1.7366,1.7387,1.7408,1.7422,1.737,1.7404,1.7373,1.733,1.7326,1.7319,1.7312,1.7296,1.7289,1.737,1.737,1.7369,0,1.7098,1.711,1.7155,1.7157,1.7171,1.7225,1.7218,1.7237,1.7273,1.7282,1.7303,1.7332,1.7357,1.7356,1.7344,1.7352,1.7353,1.7369,1.7316,1.731,1.7305,1.729,1.7283,1.7366,1.7366,1.7367,1.7367,0,1.7049,1.7056,1.7046,1.7081,1.7093,1.709,1.7136,1.7143,1.7172,1.7202,1.7205,1.7237,1.726,1.7262,1.7291,1.7266,1.7278,1.7306,1.7344,1.7292,1.7278,1.7273,1.736,1.7362,1.7363,1.7364,0,0,1.6943,1.7004,1.6999,1.7017,1.7058,1.7065,1.7065,1.7088,1.7094,1.7117,1.712,1.7137,1.7165,1.718,1.7212,1.7207,1.7167,1.7237,1.7239,1.7224,1.7144,1.7123,1.7115,1.7189,1.7188,1.7187,1.7142,0,1.689,1.6894,1.6936,1.6928,1.6937,1.6989,1.6989,1.7015,1.7043,1.7054,1.7085,1.7097,1.7131,1.7141,1.7139,1.7172,1.7151,1.7175,1.7193,1.7193,1.7185,1.7108,1.7085,1.7041,1.7136,1.7136,1.7135,0,1.6828,1.6849,1.6843,1.6886,1.6891,1.6891,1.6917,1.6926,1.6957,1.6978,1.6996,1.7032,1.7036,1.707,1.7078,1.7094,1.7103,1.7121,1.712,1.7124,1.7162,1.7111,1.7028,1.7021,1.7127,1.7127,1.7128,0,1.6754,1.678,1.678,1.6793,1.6843,1.6842,1.6863,1.6896,1.6907,1.6929,1.6938,1.696,1.6972,1.6989,1.703,1.7051,1.7034,1.7071,1.7052,1.7051,1.7047,1.7047,1.6965,1.705,1.7051,1.7051,1.7051,0,1.6691,1.6685,1.6747,1.6748,1.6743,1.6791,1.6786,1.6812,1.6841,1.6848,1.6893,1.6899,1.6953,1.6965,1.6997,1.7,1.7004,1.7022,1.7031,1.7019,1.7017,1.7026,1.7031,1.7049,1.7049,1.705,1.705,0,1.6607,1.6648,1.6652,1.67,1.6712,1.6706,1.6748,1.675,1.6781,1.6789,1.6794,1.6842,1.6858,1.6901,1.6928,1.695,1.6945,1.696,1.6934,1.694,1.6919,1.6921,1.6842,1.6835,1.6923,1.6922,1.6921,0,1.6565,1.6562,1.661,1.6618,1.6637,1.6649,1.6661,1.6709,1.672,1.6756,1.6754,1.6775,1.6793,1.6817,1.6855,1.6877,1.6894,1.6865,1.6898,1.6886,1.6896,1.6896,1.6897,1.6858,1.6857,1.6856,1.6855,0,1.6487,1.6508,1.6524,1.6547,1.6561,1.6582,1.6605,1.6609,1.6663,1.6673,1.6691,1.6705,1.6734,1.6754,1.6782,1.6804,1.6839,1.6844,1.6842,1.683,1.6816,1.6825,1.6916,1.6846,1.6847,1.6848,1.6848,1.6849,1.6424,1.6425,1.6459,1.6476,1.6498,1.6519,1.6525,1.6556,1.6572,1.6599,1.6626,1.6641,1.6674,1.6715,1.6735,1.6748,1.6766,1.6761,1.676,1.6759,1.6754,1.6812,1.6753,1.6753,1.6754,1.6754,1.6754,0,1.635,1.6375,1.639,1.6421,1.6435,1.6466,1.6494,1.6504,1.6516,1.6544,1.6562,1.6583,1.6603,1.6642,1.6666,1.6669,1.6686,1.6674,1.6675,1.668,1.6736,1.6737,1.666,1.666,1.666,1.666,1.666,1.666,1.6313,1.6316,1.6341,1.6357,1.6382,1.6397,1.641,1.6431,1.6453,1.6475,1.6491,1.6517,1.655,1.6577,1.6597,1.6608,1.6616,1.6599,1.6615,1.6667,1.6676,1.6684,1.6686,1.6599,1.6599,1.6559,1.6558,1.6558]},{"header":{"parameterUnit":"m.s-1","parameterCategory":1,"la1":30.2991,"la2":30.254,"lo1":-89.0895,"lo2":-89.0444,"dy":0.0017,"dx":0.0017,"nx":28,"ny":28,"refTime":"2024-04-03T21:00:00:Z","depth":0,"parameterNumber":3,"parameterNumberName":"V-component_of_WINDS"},"data":[0,0,0,0,0,0,0,0,0,0,0,0,0,0,0,0,0,0,0,0,0,0,0,0,0,0,0,0,0,0,0,0,0,0,0,0,0,0,0,0,0,0,0,0,0,0,0,0,0,0,0,0,0,0,0,0,0,0,-0.3805,-0.3805,0,-0.384,-0.3841,-0.3841,-0.3887,-0.3888,-0.3889,-0.389,-0.3925,-0.3925,-0.3925,0,0,0,0,0,0,0,0,0,0,0,0,0,-0.3779,-0.378,-0.3805,-0.3805,-0.3806,-0.384,-0.3841,-0.3841,-0.3887,-0.3888,-0.3889,-0.389,-0.3925,-0.3925,-0.3925,0,0,0,0,0,0,0,0,0,0,0,0,0,-0.38,-0.378,-0.3805,-0.3833,-0.3836,-0.384,-0.3841,-0.3841,-0.3887,-0.3888,-0.3889,-0.389,-0.3925,-0.3925,-0.3925,-0.3905,0,0,-0.3927,-0.3927,0,0,0,0,0,0,0,0,-0.3799,-0.3801,-0.3828,-0.3831,-0.3834,-0.3861,-0.3845,-0.3863,-0.3887,-0.3867,-0.389,-0.3891,-0.3903,-0.3905,-0.3909,-0.3907,-0.3908,-0.3927,-0.3927,-0.3927,-0.3927,0,0,0,0,0,0,0,-0.3797,-0.38,-0.3819,-0.3829,-0.3832,-0.3845,-0.3849,-0.3848,-0.3878,-0.3869,-0.3873,-0.3876,-0.3904,-0.3908,-0.391,-0.3909,-0.3927,-0.3927,-0.3927,-0.3927,-0.3896,-0.3895,0,0,0,0,0,0,-0.3792,-0.3798,-0.3818,-0.382,-0.3819,-0.3844,-0.3849,-0.3851,-0.3878,-0.3884,-0.3875,-0.3878,-0.3907,-0.391,-0.3911,-0.3893,-0.3927,-0.3927,-0.3928,-0.3897,-0.3896,-0.3894,0,0,0,0,0,0,-0.3791,-0.3793,-0.3816,-0.381,-0.3814,-0.3843,-0.3845,-0.3851,-0.3855,-0.3883,-0.3889,-0.3874,-0.3908,-0.3911,-0.3907,-0.3894,-0.3927,-0.3928,-0.3898,-0.3896,-0.3895,-0.3852,0,0,0,0,0,0,-0.379,-0.3792,-0.3784,-0.381,-0.3814,-0.3811,-0.3844,-0.3851,-0.3856,-0.386,-0.3883,-0.3888,-0.3909,-0.3907,-0.3908,-0.3895,-0.3928,-0.3899,-0.3897,-0.3895,-0.3855,-0.3849,-0.3845,0,0,0,0,0,-0.3789,-0.377,-0.3784,-0.3786,-0.3805,-0.381,-0.3813,-0.3838,-0.3854,-0.3847,-0.3866,-0.3887,-0.3895,-0.3906,-0.3907,-0.3895,-0.39,-0.3898,-0.3896,-0.3857,-0.385,-0.3845,0,0,0,0,0,0,-0.3741,-0.3773,-0.3789,-0.3777,-0.3791,-0.3818,-0.3809,-0.3829,-0.3838,-0.3841,-0.3872,-0.3877,-0.387,-0.3882,-0.3893,-0.3879,-0.3901,-0.3899,-0.3872,-0.3865,-0.386,-0.3858,-0.3928,0,0,0,0,0,-0.3729,-0.373,-0.3759,-0.3746,-0.3752,-0.3779,-0.3782,-0.3801,-0.3816,-0.3822,-0.384,-0.3853,-0.386,-0.3863,-0.3869,-0.3857,-0.3864,-0.3849,-0.3844,-0.384,-0.3838,-0.3836,-0.383,-0.3887,-0.3887,-0.3887,0,0,-0.3704,-0.3722,-0.3721,-0.3737,-0.3749,-0.3751,-0.3784,-0.3783,-0.3786,-0.3822,-0.382,-0.3834,-0.3852,-0.3844,-0.3842,-0.3854,-0.3824,-0.3837,-0.3833,-0.3834,-0.3833,-0.3827,-0.3823,-0.3885,-0.3885,-0.3886,0,0,-0.3661,-0.3673,-0.3666,-0.3678,-0.3698,-0.3717,-0.3715,-0.3739,-0.3751,-0.375,-0.3778,-0.3781,-0.379,-0.3803,-0.381,-0.3775,-0.3797,-0.3776,-0.375,-0.3747,-0.3743,-0.3739,-0.373,-0.3726,-0.3774,-0.3774,-0.3774,0,-0.3628,-0.3632,-0.3659,-0.3659,-0.3666,-0.37,-0.3694,-0.3704,-0.3724,-0.3729,-0.3742,-0.3757,-0.3771,-0.3769,-0.3761,-0.3764,-0.3765,-0.3774,-0.3741,-0.3738,-0.3735,-0.3726,-0.3722,-0.3772,-0.3772,-0.3772,-0.3772,0,-0.3592,-0.3594,-0.3586,-0.3607,-0.3613,-0.3609,-0.3637,-0.364,-0.3659,-0.3677,-0.3678,-0.3696,-0.3709,-0.3709,-0.3726,-0.3711,-0.3718,-0.3735,-0.3759,-0.3727,-0.3719,-0.3716,-0.3768,-0.3769,-0.377,-0.377,0,0,-0.3519,-0.3556,-0.3553,-0.3565,-0.3589,-0.3592,-0.3591,-0.3605,-0.3608,-0.3621,-0.3623,-0.3631,-0.3649,-0.3658,-0.3677,-0.3674,-0.365,-0.3693,-0.3694,-0.3687,-0.3637,-0.3625,-0.3621,-0.3664,-0.3663,-0.3662,-0.3637,0,-0.3482,-0.3483,-0.3509,-0.3503,-0.3508,-0.3541,-0.3541,-0.3557,-0.3574,-0.3581,-0.36,-0.3607,-0.3628,-0.3634,-0.3633,-0.3653,-0.3641,-0.3655,-0.3667,-0.3667,-0.3664,-0.3616,-0.3603,-0.3578,-0.3633,-0.3633,-0.3633,0,-0.3439,-0.3452,-0.3447,-0.3476,-0.3479,-0.3478,-0.3494,-0.35,-0.3519,-0.3532,-0.3543,-0.3566,-0.3569,-0.359,-0.3596,-0.3605,-0.3612,-0.3622,-0.3622,-0.3626,-0.3649,-0.3621,-0.357,-0.3567,-0.3628,-0.3628,-0.3628,0,-0.3391,-0.3406,-0.3406,-0.3414,-0.3447,-0.3446,-0.3459,-0.348,-0.3488,-0.3502,-0.3508,-0.3522,-0.353,-0.3541,-0.3567,-0.358,-0.3571,-0.3593,-0.3583,-0.3583,-0.3581,-0.3581,-0.3532,-0.3581,-0.3581,-0.3581,-0.3582,0,-0.3348,-0.3345,-0.3385,-0.3385,-0.3383,-0.3414,-0.3411,-0.3427,-0.3446,-0.3451,-0.348,-0.3484,-0.3518,-0.3526,-0.3547,-0.355,-0.3553,-0.3565,-0.3571,-0.3564,-0.3562,-0.357,-0.3573,-0.3581,-0.3581,-0.3581,-0.3581,0,-0.3294,-0.332,-0.3323,-0.3355,-0.3362,-0.336,-0.3387,-0.3389,-0.3409,-0.3415,-0.3418,-0.3449,-0.3461,-0.3489,-0.3507,-0.3521,-0.352,-0.3529,-0.3514,-0.3518,-0.3507,-0.3509,-0.3463,-0.346,-0.3508,-0.3508,-0.3508,0,-0.3266,-0.3265,-0.3297,-0.3302,-0.3315,-0.3324,-0.3332,-0.3363,-0.3371,-0.3395,-0.3395,-0.3409,-0.3423,-0.344,-0.3465,-0.348,-0.3491,-0.3474,-0.3494,-0.3487,-0.3494,-0.3495,-0.3496,-0.347,-0.347,-0.3469,-0.3469,0,-0.3216,-0.323,-0.3241,-0.3258,-0.3268,-0.3283,-0.3299,-0.3302,-0.3337,-0.3344,-0.3358,-0.3368,-0.3388,-0.3403,-0.3422,-0.3437,-0.3459,-0.3462,-0.3461,-0.3455,-0.3447,-0.3454,-0.3505,-0.3463,-0.3464,-0.3464,-0.3465,-0.3465,-0.3176,-0.3177,-0.3201,-0.3214,-0.3229,-0.3245,-0.3249,-0.3271,-0.3282,-0.3302,-0.3319,-0.3331,-0.3354,-0.3382,-0.3396,-0.3407,-0.3418,-0.3415,-0.3415,-0.3415,-0.3413,-0.3444,-0.341,-0.341,-0.341,-0.341,-0.3411,0,-0.3129,-0.3147,-0.3158,-0.3181,-0.3192,-0.3212,-0.3232,-0.3239,-0.325,-0.3269,-0.3282,-0.3299,-0.3314,-0.3341,-0.3358,-0.3362,-0.3373,-0.3366,-0.3367,-0.3371,-0.3401,-0.3401,-0.3357,-0.3357,-0.3357,-0.3357,-0.3357,-0.3357,-0.3107,-0.3111,-0.3129,-0.3142,-0.316,-0.3173,-0.3183,-0.3197,-0.3213,-0.3231,-0.3244,-0.3261,-0.3285,-0.3305,-0.332,-0.3328,-0.3334,-0.3324,-0.3335,-0.3363,-0.3368,-0.3373,-0.3374,-0.3325,-0.3324,-0.3305,-0.3304,-0.3304]}]]